Home   Weather   Klagenfurt   Past weeks

Flag for Austria Past Weather in Klagenfurt, Carinthia, Austria — Yesterday and Last 2 Weeks

Now
30 °F

Clear.


Feels Like: 30 °F
Forecast: 22 / 45 °F
Wind: 1 mph from North

Location: Klagenfurt-Flughafen

Current Time: Dec 7, 2016 at 5:45:41 pm

Latest Report: Dec 7, 2016 at 4:50 pm


Visibility: 10 mi

Pressure: 30.63 "Hg

Humidity: 86%

Dew Point: 27 °F

Location of KlagenfurtLocation

Past Weather in Klagenfurt — Graph

°F

Klagenfurt Temperature Yesterday

Maximum temperature yesterday: 36 °F (at 1:20 pm)
Minimum temperature yesterday: 19 °F (at 5:50 am)
Average temperature yesterday: 26 °F

High & Low Weather Summary for the Past Weeks

 TemperatureHumidityPressure
High54 °F (Dec 2, 2:20 pm)100% (Nov 22, 5:20 pm)30.66 "Hg (Nov 22, 5:20 pm)
Low18 °F (Dec 7, 7:20 am)28% (Nov 29, 2:20 pm)29.83 "Hg (Dec 2, 5:50 am)
Average35 °F84%30.21 "Hg
* Reported Nov 22 4:20 pm — Dec 7 4:20 pm, Klagenfurt, Weather by CustomWeather, © 2016

Note: Actual official high and low records may vary slightly from our data, if they occured in-between our weather recording intervals... More about our weather records

Advertising

Klagenfurt Weather History for the Previous 24 Hours

Scroll right to see more
 ConditionsComfort  
Time TempWeatherWind HumidityBarometerVisibility
4:20 pm
Wed, Dec 7
32 °FClear.2 mph80%30.60 "Hg10 mi
3:50 pm34 °FSunny.1 mph75%30.60 "Hg10 mi
3:20 pm36 °FSunny.1 mph70%30.60 "Hg10 mi
2:50 pm36 °FSunny.2 mph70%30.60 "Hg10 mi
2:20 pm36 °FSunny.2 mph70%30.60 "Hg10 mi
1:50 pm36 °FSunny.2 mph75%30.60 "Hg10 mi
1:20 pm36 °FSunny.2 mph70%30.60 "Hg10 mi
12:50 pm34 °FSunny.1 mph75%30.60 "Hg10 mi
12:20 pm34 °FPassing clouds.2 mph75%30.63 "HgN/A
11:50 am32 °FPassing clouds.1 mph80%30.63 "HgN/A
11:20 am32 °FPassing clouds.1 mph80%30.63 "HgN/A
10:50 am28 °FPassing clouds.1 mph86%30.63 "HgN/A
10:20 am27 °FPassing clouds.2 mph93%30.66 "HgN/A
9:50 am27 °FPassing clouds.2 mph86%30.63 "Hg6 mi
9:20 am23 °FSleet. Passing clouds.2 mph93%30.63 "HgN/A
8:50 am21 °FLight freezing rain. Passing clouds.1 mph86%30.63 "Hg2 mi
8:20 am19 °FScattered clouds.1 mph93%30.63 "Hg2 mi
7:50 am19 °FScattered clouds.2 mph86%30.63 "Hg2 mi
7:20 am18 °FPassing clouds.2 mph93%30.60 "Hg5 mi
6:50 am19 °FPassing clouds.2 mph86%30.60 "HgN/A
6:20 am19 °FSnow. Overcast.1 mph86%30.60 "HgN/A
5:50 am19 °FPassing clouds.1 mph86%30.57 "HgN/A
5:20 am19 °FPassing clouds.3 mph93%30.57 "HgN/A
4:50 am19 °FPassing clouds.2 mph93%30.57 "Hg6 mi
4:20 am19 °FLight freezing rain. Passing clouds.2 mph86%30.57 "Hg2 mi
3:50 am19 °FIce fog.1 mph93%30.57 "Hg1 mi
3:20 am19 °FSleet. Overcast.2 mph93%30.54 "Hg4 mi
2:50 am21 °FSleet. Overcast.3 mph93%30.54 "HgN/A
2:20 am21 °FPassing clouds.2 mph93%30.54 "HgN/A
1:50 am21 °FPassing clouds.2 mph93%30.54 "Hg6 mi
1:20 am21 °FPassing clouds.2 mph93%30.51 "HgN/A
12:50 am21 °FCold.1 mph93%30.51 "Hg4 mi
12:20 am23 °FCold.2 mph86%30.51 "Hg5 mi
11:50 pm
Tue, Dec 6
23 °FPassing clouds.2 mph93%30.51 "Hg6 mi
11:20 pm23 °FCold.1 mph93%30.51 "Hg5 mi
10:50 pm23 °FCold.1 mph93%30.51 "Hg4 mi
10:20 pm23 °FCold.1 mph93%30.48 "Hg4 mi
9:50 pm23 °FCold.3 mph93%30.48 "Hg4 mi
9:20 pm25 °FClear.1 mph93%30.48 "Hg4 mi
8:50 pm27 °FClear.3 mph93%30.48 "Hg4 mi
8:20 pm27 °FClear.5 mph93%30.45 "Hg4 mi
7:50 pm27 °FClear.3 mph93%30.45 "Hg4 mi
6:50 pm28 °FClear.3 mph93%30.45 "Hg4 mi
6:20 pm28 °FPassing clouds.1 mph86%30.45 "Hg4 mi
5:50 pm28 °FPassing clouds.3 mph93%30.42 "Hg6 mi
5:20 pm28 °FPassing clouds.2 mph93%30.42 "Hg6 mi
Weather by CustomWeather, © 2016

See weather overviewHow to use our weather pages